Franklin, PA

11:35 AM EST on November 20, 2019 (GMT -0500)
Venango Regional

Weather History for KFKL - September, 2019

Change the Weather History Date:

Tuesday, September 24, 2019

  Actual Average Record
Temperature  
Mean Temperature 60 °F -  
Max Temperature 68 °F 66 °F 90 °F (1930)
Min Temperature 52 °F 45 °F 31 °F (1974)
Degree Days  
Heating Degree Days 6    
Growing Degree Days 10 (Base 50)    
Moisture  
Dew Point 52 °F    
Average Humidity 80    
Maximum Humidity 97    
Minimum Humidity 52    
Precipitation  
Precipitation 0.00 in - - ()
Sea Level Pressure  
Sea Level Pressure 29.96 in    
Wind  
Wind Speed 6 mph (West)    
Max Wind Speed 9 mph    
Max Gust Speed -    
Visibility 10 miles    
Events      
Averages and records for this station are not official NWS values.
T = Trace of Precipitation, MM = Missing Value Source: NWS Daily Summary

Daily Weather History Graph

Daily Weather History Graph

Search for Another Location

Airport or City:

Astronomy

Sep. 24, 2019 Rise Set
Actual Time 7:08 AM EDT 7:13 PM EDT
Civil Twilight 6:41 AM EDT 7:41 PM EDT
Nautical Twilight 6:08 AM EDT 8:13 PM EDT
Astronomical Twilight 5:35 AM EDT 8:46 PM EDT
Moon 1:47 AM EDT (9/24) 5:01 PM EDT (9/24)
Length of Visible Light 13h 00m
Length of Day
12h 04m
Waning Crescent, 23% of the Moon is Illuminated
Sep 24
Waning Crescent
Sep 28
New
Oct 5
First Quarter
Oct 13
Full
Oct 21
Last Quarter

Hourly Weather History & Observations

Time (EDT) Temp. Dew Point Humidity Pressure Visibility Wind Dir Wind Speed Gust Speed Precip Events Conditions
12:56 AM 55.0 °F 52.0 °F 89% 29.93 in 10.0 mi West 5.8 mph - N/A   Clear
1:56 AM 55.0 °F 52.0 °F 89% 29.93 in 10.0 mi West 6.9 mph - N/A   Clear
2:52 AM 55.4 °F 51.8 °F 88% 29.93 in 10.0 mi West 6.9 mph - N/A   Mostly Cloudy
2:56 AM 55.0 °F 52.0 °F 89% 29.92 in 10.0 mi West 6.9 mph - N/A   Mostly Cloudy
3:56 AM 54.0 °F 52.0 °F 93% 29.92 in 10.0 mi West 4.6 mph - N/A   Partly Cloudy
4:56 AM 55.0 °F 52.0 °F 89% 29.93 in 10.0 mi WNW 9.2 mph - N/A   Clear
5:56 AM 54.0 °F 52.0 °F 93% 29.94 in 10.0 mi WNW 6.9 mph - N/A   Partly Cloudy
6:20 AM 53.6 °F 51.8 °F 94% 29.96 in 10.0 mi West 8.1 mph - N/A   Mostly Cloudy
6:41 AM 53.6 °F 51.8 °F 94% 29.96 in 10.0 mi West 8.1 mph - N/A   Scattered Clouds
6:56 AM 53.1 °F 52.0 °F 96% 29.96 in 10.0 mi West 6.9 mph - N/A   Scattered Clouds
7:56 AM 54.0 °F 53.1 °F 97% 29.97 in 10.0 mi West 9.2 mph - N/A   Partly Cloudy
8:51 AM 57.2 °F 53.6 °F 88% 29.98 in 10.0 mi NW 5.8 mph - N/A   Mostly Cloudy
8:56 AM 57.0 °F 54.0 °F 89% 29.98 in 10.0 mi WNW 8.1 mph - N/A   Mostly Cloudy
9:56 AM 60.1 °F 55.0 °F 83% 29.99 in 10.0 mi Variable 4.6 mph - N/A   Overcast
10:23 AM 60.8 °F 53.6 °F 77% 30.00 in 10.0 mi Variable 5.8 mph - N/A   Overcast
10:56 AM 62.1 °F 53.1 °F 72% 29.99 in 10.0 mi NNW 8.1 mph - N/A   Mostly Cloudy
11:26 AM 64.4 °F 53.6 °F 68% 30.00 in 10.0 mi NW 8.1 mph - N/A   Mostly Cloudy
11:56 AM 64.0 °F 52.0 °F 65% 29.99 in 10.0 mi West 9.2 mph - N/A   Mostly Cloudy
12:56 PM 66.0 °F 50.0 °F 56% 29.98 in 10.0 mi North 5.8 mph - N/A   Partly Cloudy
1:56 PM 66.0 °F 48.0 °F 52% 29.96 in 10.0 mi NW 6.9 mph - N/A   Mostly Cloudy
2:56 PM 64.9 °F 50.0 °F 58% 29.97 in 10.0 mi WNW 3.5 mph - N/A   Overcast
3:56 PM 64.9 °F 51.1 °F 61% 29.96 in 10.0 mi West 4.6 mph - N/A   Scattered Clouds
4:56 PM 66.0 °F 52.0 °F 60% 29.96 in 10.0 mi Calm Calm - N/A   Overcast
5:56 PM 64.0 °F 52.0 °F 65% 29.96 in 10.0 mi NW 4.6 mph - N/A   Partly Cloudy
6:56 PM 62.1 °F 52.0 °F 70% 29.96 in 10.0 mi West 3.5 mph - N/A   Clear
7:56 PM 57.9 °F 52.0 °F 81% 29.96 in 10.0 mi WSW 3.5 mph - N/A   Clear
8:56 PM 55.9 °F 52.0 °F 87% 29.96 in 10.0 mi SW 4.6 mph - N/A   Clear
9:56 PM 53.1 °F 50.0 °F 89% 29.96 in 10.0 mi SSW 5.8 mph - N/A   Clear
10:56 PM 54.0 °F 51.1 °F 90% 29.95 in 10.0 mi SW 4.6 mph - N/A   Clear
11:56 PM 52.0 °F 50.0 °F 93% 29.93 in 10.0 mi SSW 4.6 mph - N/A   Clear